Regional Weather Roundup
Issued by NWS

Home | Current Version | Previous Version | Text Only | Print | Product List | Glossary On
Versions: 1 2 3 4 5 6 7 8 9 10 11 12 13 14 15 16 17 18 19 20 21 22 23 24 25 26 27 28 29 30 31 32 33 34 35 36 37 38 39 40 41 42 43 44 45 46 47 48 49 50
795
ASUS46 KPQR 162010
RWROR

OREGON REGIONAL WEATHER ROUNDUP
NATIONAL WEATHER SERVICE PORTLAND OR
1200 PM PST MON JAN 16 2017

NOTE: "FAIR" INDICATES FEW OR NO CLOUDS BELOW 12,000 FEET WITH
NO SIGNIFICANT WEATHER AND/OR OBSTRUCTIONS TO VISIBILITY.

ORZ001>013-162100-
NORTHWEST OREGON


CITY           SKY/WX    TMP DP  RH WIND       PRES   REMARKS
ASTORIA        MOSUNNY   44  26  49 E12       30.09F
NEWPORT        MOSUNNY   46  32  57 E14       30.14F
PORTLAND       PTSUNNY   27  15  61 SE15      30.26F WCI  15
VANCOUVER WA   SUNNY     28  17  63 SE8       30.26F WCI  20
SCAPPOOSE      PTSUNNY   28  19  69 S8        30.25F WCI  20
HILLSBORO      PTSUNNY   31  20  63 CALM      30.23F
AURORA         MOSUNNY   33  18  53 N5        30.25F WCI  29
MCMINNVILLE    SUNNY     31  20  63 CALM      30.24F
SALEM          MOSUNNY   34  19  54 CALM      30.22F
CORVALLIS        N/A     34  23  64 E3        30.23F
EUGENE         PTSUNNY   35  27  72 N5        30.23F WCI  31
$$

ORZ021-028-162100-
SOUTHWEST OREGON


CITY           SKY/WX    TMP DP  RH WIND       PRES   REMARKS
NORTH BEND     MOSUNNY   54  39  58 SE10      30.15F
BROOKINGS      MOSUNNY   55  37  50 S6        30.16F
ROSEBURG       SUNNY     42  38  85 SW5       30.19F
SEXTON SUMMIT  MOSUNNY   47  16  29 SE9       30.15F
MEDFORD        MOSUNNY   36  34  92 CALM      30.21F
$$

ORZ014>016-041-162100-
COLUMBIA GORGE


CITY           SKY/WX    TMP DP  RH WIND       PRES   REMARKS
TROUTDALE      PTSUNNY   25  15  66 E30G41    30.26F WCI   8
THE DALLES     CLOUDY    17  10  74 E3        30.56F
$$

ORZ029>031-041-044-049-050-061>064-502-503-505>511-162100-
EASTERN OREGON


CITY           SKY/WX    TMP DP  RH WIND       PRES   REMARKS
REDMOND        SUNNY     18   8  65 CALM      30.24F
BEND           SUNNY     30  18  59 E7        30.22F WCI  23
PRINEVILLE     SUNNY     30  16  55 CALM      30.24F
KLAMATH FALLS  SUNNY     28  21  75 NE5       30.27F WCI  23
LAKEVIEW       SUNNY     25  18  74 CALM      30.27F
HERMISTON      CLOUDY    13   8  81 S6        30.51F HAZE    WCI   4
PENDLETON      CLOUDY     9   6  88 S7        30.42F FOG     WCI  -2
JOHN DAY       SUNNY     30  20  66 CALM      30.25S
MEACHAM        SUNNY     26  12  55 CALM      30.21F
LA GRANDE      SUNNY      7   5  92 N5        30.36F WCI  -2
BAKER CITY     SUNNY      1  -5  75 CALM      30.38F HAZE
BURNS          NOT AVBL
ROME             N/A     15  10  80 CALM      30.32F
ONTARIO        LGT SNOW   6   0  76 CALM      30.57F
$$




USA.gov is the U.S. government's official web portal to all federal, state and local government web resources and services.